Wind_Speed
32 32 33 32 31 31 32 32 33 32 34 34 34 35 36 35 35 35 36 35 36 37 37 38 39 40 41 42 43 43 44 44 45 46 46 46 47 48 50 51 51 52 52 53
30 30 31 32 31 31 31 31 32 32 32 32 33 34 34 34 34 35 35 35 35 36 36 36 37 38 38 40 41 42 42 42 43 44 44 45 46 47 48 49 50 51 52 52
29 29 30 29 28 30 32 32 32 31 30 31 32 33 34 34 34 33 34 34 34 34 35 35 36 36 37 38 39 40 40 41 42 43 44 45 45 46 47 48 49 50 51 52
30 29 29 27 27 28 29 30 31 31 30 30 31 32 33 33 33 33 34 34 35 36 36 36 36 37 38 38 38 38 39 40 41 42 43 44 44 45 45 46 48 49 50 51
29 30 29 26 27 27 29 29 29 30 30 30 30 30 30 31 32 33 33 33 34 35 35 36 36 37 37 37 37 38 38 38 39 40 40 40 41 42 43 44 45 47 49 50
28 29 29 27 27 28 28 28 28 29 29 30 30 30 30 30 31 32 32 32 33 34 34 34 35 35 36 36 36 37 38 38 38 38 38 38 39 40 41 42 43 44 46 48
28 28 28 27 28 28 29 28 28 29 30 30 30 30 30 30 30 31 32 32 32 33 32 32 32 33 34 34 35 36 37 37 37 37 37 38 39 40 41 41 42 43 44 46
27 27 27 28 28 28 29 29 29 30 30 30 30 29 29 30 30 31 31 31 32 32 31 31 32 32 33 34 34 35 35 36 36 37 37 38 39 40 41 42 42 43 44 45
26 26 27 27 27 28 28 29 30 30 30 31 30 30 29 29 30 30 31 31 31 32 31 32 32 33 33 34 34 34 35 36 37 37 38 39 39 40 40 41 42 43 44 45
25 25 26 26 27 28 29 30 30 30 30 30 31 31 31 31 31 31 31 31 31 31 31 31 32 32 32 33 33 34 34 36 37 38 39 39 40 41 41 42 42 42 42 43
24 24 25 25 26 26 27 28 29 30 30 30 30 31 31 31 31 31 31 31 31 31 30 31 31 32 32 32 32 33 34 35 36 36 37 38 39 40 41 42 42 42 42 42
24 24 25 25 26 26 27 27 28 29 29 29 30 29 29 30 30 31 31 30 30 30 30 31 31 31 31 31 32 32 33 33 33 34 35 37 38 38 39 39 40 41 41 41
23 23 25 25 25 26 26 27 28 28 27 27 28 28 29 29 29 29 29 29 30 30 30 30 30 30 30 30 31 32 32 33 33 33 34 35 35 36 37 37 38 39 39 40
22 23 23 24 24 24 25 26 26 26 26 26 26 27 27 28 28 28 28 28 28 28 28 28 28 29 29 30 30 31 31 31 32 33 33 34 34 35 35 36 36 37 38 38
22 23 23 23 24 24 25 25 25 25 25 26 26 27 26 27 27 27 26 26 27 27 27 27 28 28 29 29 30 30 30 31 31 32 33 33 33 34 34 35 35 35 36 37
22 23 23 24 24 25 25 26 26 25 25 25 25 26 26 26 26 25 25 25 25 26 26 27 28 29 29 30 30 30 30 31 31 32 32 32 33 33 33 34 35 35 35 36
24 24 24 24 24 25 25 26 26 25 25 25 25 25 25 25 25 25 25 25 25 25 26 26 27 28 29 29 29 30 30 31 31 31 31 32 32 32 32 33 34 34 35 35
24 25 24 25 25 25 25 25 25 25 25 25 25 25 25 24 24 24 24 24 24 25 26 26 26 27 27 28 28 28 29 29 29 30 30 31 32 32 33 33 33 33 33 33
24 24 25 25 26 26 26 25 25 25 25 25 24 24 24 24 23 23 23 23 24 24 24 25 25 26 26 27 27 27 28 28 28 29 29 30 30 31 31 31 31 31 31 32
24 25 25 26 26 26 26 25 25 24 24 24 24 24 23 23 23 23 24 24 24 24 24 25 25 25 25 26 26 27 27 28 29 29 29 29 29 29 29 30 30 30 30 30
25 25 26 26 26 26 26 25 25 25 24 24 24 23 23 23 23 23 23 23 23 24 24 24 24 24 24 25 26 27 27 28 28 29 29 29 29 28 28 29 29 29 29 28
25 25 25 25 25 25 25 25 24 24 24 24 24 24 24 23 23 23 23 23 23 23 23 23 23 23 24 24 25 26 27 27 28 28 28 28 28 28 27 27 27 27 27 26
26 26 26 25 25 24 24 24 24 24 25 25 25 24 24 24 24 24 23 23 23 23 23 23 23 24 24 25 25 26 27 27 28 28 27 27 27 27 27 26 26 26 25 25
26 26 26 26 25 25 25 24 24 25 25 25 25 25 24 24 24 23 23 23 24 24 24 24 24 24 25 25 26 26 27 27 27 27 27 27 27 27 26 26 25 25 24 24
27 26 26 26 26 26 25 25 25 25 25 25 24 24 24 24 24 23 23 24 24 24 24 24 25 25 26 26 26 27 27 27 27 26 26 26 26 25 25 25 24 24 23 23
27 26 26 26 26 26 25 25 25 25 25 24 24 24 24 24 24 24 24 24 24 24 24 25 25 25 26 26 26 26 26 26 26 26 25 25 24 24 23 23 23 22 22 21
27 27 27 26 26 26 25 25 25 25 25 24 24 24 23 23 23 23 24 24 24 24 25 25 25 25 25 25 25 25 25 25 25 24 24 23 22 22 22 22 21 21 20 20
Wind_Direction
277 276 276 275 273 272 271 272 272 272 273 274 273 272 273 273 272 272 271 271 270 269 269 268 268 268 268 267 266 265 264 262 262 262 261 261 260 260 260 259 259 259 259 260
277 277 277 275 274 272 271 271 272 273 275 275 274 273 274 273 273 272 272 272 272 270 269 270 270 270 270 269 268 266 264 264 263 263 263 263 262 261 260 260 260 259 260 261
279 278 277 276 275 274 272 271 272 276 278 277 276 275 274 273 273 272 271 270 271 270 270 270 270 271 271 271 269 267 266 265 265 265 265 264 263 263 261 260 260 260 261 262
280 279 277 281 277 276 276 275 273 273 277 278 278 278 276 275 274 273 272 271 271 271 270 270 270 271 272 271 270 269 269 268 268 267 266 265 264 263 262 261 260 260 261 263
280 279 280 280 279 281 280 277 275 274 277 278 280 280 278 276 276 275 274 273 273 272 273 272 272 272 272 271 271 271 270 271 270 269 268 266 264 264 263 263 263 262 263 264
280 280 280 281 280 281 283 281 280 277 278 280 281 280 279 278 278 277 275 275 274 274 274 274 274 273 273 273 273 272 271 271 270 269 268 266 266 266 266 266 266 265 266 266
280 282 282 281 283 284 284 285 284 281 279 280 281 281 279 278 278 277 277 276 276 276 276 275 275 274 274 274 275 274 273 271 270 269 268 267 267 267 268 268 268 268 268 268
282 281 282 281 283 285 286 286 286 285 282 281 281 280 278 278 278 278 277 277 276 276 275 276 276 276 276 275 276 276 274 271 270 269 268 268 269 269 269 269 269 269 270 270
284 283 282 283 284 285 285 286 286 285 283 281 279 279 279 279 279 279 279 278 278 277 276 276 277 277 277 277 277 277 276 273 272 271 271 271 271 271 271 271 271 271 271 271
286 285 283 284 284 284 284 285 286 285 285 282 279 279 281 282 281 280 280 279 279 279 278 277 278 278 279 280 279 278 277 276 274 274 274 274 274 274 274 274 273 273 273 273
285 285 284 283 284 285 285 285 286 287 287 285 281 280 280 282 282 281 280 280 279 279 279 278 279 279 280 280 279 279 279 278 276 275 275 276 276 276 276 277 277 276 276 275
286 286 285 285 285 287 288 288 288 288 287 285 283 283 283 283 284 283 282 281 280 280 280 280 280 281 281 280 281 281 281 280 280 279 279 279 278 278 278 279 279 278 278 277
288 286 286 287 289 290 290 291 291 290 289 288 286 285 285 285 286 285 283 281 281 281 280 280 281 281 281 282 283 283 283 282 282 283 282 281 280 280 280 280 280 280 279 278
290 288 287 288 289 290 292 293 294 293 291 290 290 290 288 287 286 285 283 281 281 282 282 282 283 283 283 284 285 284 284 283 283 283 283 283 282 281 282 282 282 281 280 279
293 291 289 290 291 292 293 294 295 294 294 292 292 291 290 288 287 284 283 283 283 283 283 283 283 283 285 286 286 285 285 284 284 284 284 284 284 284 284 284 284 284 283 282
294 293 291 291 292 293 293 294 294 294 294 294 294 292 291 289 287 286 285 284 285 285 285 284 283 283 285 286 286 286 285 285 285 285 285 285 286 286 286 285 285 285 285 285
294 293 291 291 291 293 294 294 293 293 293 294 294 293 292 292 289 287 286 286 287 287 288 287 286 285 286 286 286 287 287 286 286 286 286 286 286 287 288 288 287 286 286 286
294 294 293 293 295 295 295 295 294 293 293 295 295 294 293 292 290 289 287 287 288 289 290 289 288 288 288 288 288 289 289 288 288 288 288 288 288 288 289 289 289 289 288 287
297 297 297 296 296 296 296 296 295 295 295 295 295 295 294 292 291 290 289 288 288 288 289 289 290 290 290 290 290 291 291 291 291 291 292 292 292 292 291 290 290 290 291 290
298 299 299 298 297 296 295 294 295 295 295 295 296 296 295 294 292 291 290 289 289 289 290 290 291 292 292 292 292 293 293 294 294 293 294 293 294 294 293 292 292 292 291 291
300 301 301 300 299 298 295 293 293 293 293 294 295 295 295 294 293 292 292 290 290 291 292 291 292 293 295 295 295 295 295 296 296 296 296 295 294 295 294 294 293 293 292 291
300 302 302 302 301 300 297 294 293 292 292 293 294 294 294 293 293 293 293 292 291 292 292 292 293 295 297 298 298 297 297 298 299 298 298 297 297 296 295 295 295 294 293 293
301 302 301 300 300 299 298 296 295 293 293 293 294 293 292 293 293 292 292 292 291 292 293 294 295 296 297 298 300 301 301 300 300 300 298 298 298 297 296 296 296 296 295 293
301 302 301 300 299 298 297 297 297 296 294 293 293 293 293 293 293 293 292 292 292 293 294 294 294 296 298 299 300 301 302 302 302 301 299 298 298 298 297 297 296 295 294 294
300 301 301 301 300 299 297 296 296 297 296 295 294 292 292 293 294 293 293 293 293 293 293 294 294 295 297 298 299 301 302 302 303 303 302 300 299 298 297 297 296 294 293 292
300 300 300 300 299 299 298 297 297 297 296 295 294 293 293 292 292 293 293 294 294 295 295 295 295 296 297 299 300 302 303 303 303 304 304 302 300 299 298 296 295 295 293 292
299 299 300 299 299 298 297 297 297 297 296 294 293 292 292 292 291 292 293 293 294 295 296 296 296 297 298 300 302 304 305 305 305 305 305 303 301 300 299 298 296 296 296 294
Height
5560 5558 5557 5556 5555 5554 5553 5552 5551 5551 5550 5550 5549 5548 5547 5546 5545 5544 5544 5544 5543 5543 5543 5542 5542 5541 5541 5540 5539 5539 5538 5538 5538 5538 5538 5539 5539 5539 5540 5541 5542 5544 5545 5546
5550 5549 5547 5546 5545 5545 5544 5542 5541 5541 5541 5540 5538 5537 5536 5535 5535 5534 5534 5533 5532 5532 5531 5531 5530 5529 5529 5528 5527 5526 5526 5526 5525 5525 5525 5525 5525 5525 5526 5527 5528 5529 5530 5531
5541 5540 5537 5537 5537 5536 5535 5534 5533 5531 5532 5530 5528 5527 5526 5525 5525 5524 5523 5523 5522 5521 5520 5520 5519 5518 5517 5516 5515 5514 5514 5513 5513 5513 5512 5512 5512 5512 5512 5513 5514 5515 5516 5516
5531 5530 5529 5532 5528 5526 5525 5524 5523 5522 5522 5520 5519 5517 5516 5515 5514 5514 5513 5512 5511 5511 5510 5509 5508 5507 5506 5505 5504 5503 5502 5501 5501 5500 5499 5499 5498 5498 5498 5499 5500 5500 5501 5501
5522 5519 5519 5521 5519 5517 5516 5516 5514 5513 5512 5511 5509 5508 5507 5505 5504 5503 5502 5502 5501 5500 5499 5498 5497 5496 5495 5494 5493 5492 5491 5490 5488 5487 5487 5486 5486 5486 5486 5486 5486 5486 5487 5487
5513 5511 5511 5513 5511 5508 5508 5507 5506 5504 5502 5501 5500 5499 5499 5496 5495 5494 5493 5492 5491 5490 5488 5487 5486 5485 5484 5483 5482 5480 5479 5478 5477 5476 5475 5474 5474 5474 5473 5473 5472 5472 5472 5472
5506 5503 5503 5503 5501 5500 5500 5499 5496 5494 5493 5492 5490 5490 5489 5487 5486 5484 5483 5482 5481 5479 5478 5477 5476 5475 5474 5472 5471 5469 5468 5466 5465 5464 5464 5463 5463 5462 5461 5461 5460 5459 5459 5458
5498 5496 5498 5495 5493 5493 5491 5489 5487 5485 5484 5482 5481 5479 5478 5477 5476 5474 5473 5472 5470 5469 5468 5467 5465 5464 5463 5462 5460 5458 5457 5455 5454 5454 5453 5452 5451 5450 5449 5448 5447 5446 5446 5444
5491 5491 5489 5486 5485 5483 5482 5480 5478 5476 5475 5473 5471 5470 5469 5468 5466 5465 5464 5462 5461 5460 5458 5457 5455 5454 5453 5451 5450 5448 5446 5445 5444 5443 5442 5441 5440 5438 5437 5436 5435 5433 5432 5431
5482 5481 5480 5478 5476 5475 5473 5471 5469 5467 5466 5464 5462 5461 5460 5458 5457 5455 5454 5453 5451 5450 5448 5447 5446 5444 5442 5441 5439 5438 5436 5434 5433 5432 5430 5429 5428 5426 5425 5423 5422 5420 5418 5417
5475 5474 5472 5471 5469 5467 5465 5462 5460 5459 5457 5455 5453 5452 5450 5448 5447 5445 5444 5442 5441 5440 5438 5437 5436 5434 5433 5431 5429 5428 5426 5424 5422 5421 5419 5418 5416 5414 5412 5410 5408 5407 5405 5403
5468 5466 5464 5463 5461 5459 5456 5454 5452 5450 5448 5446 5444 5442 5441 5439 5437 5435 5434 5432 5431 5430 5428 5427 5426 5424 5423 5421 5420 5418 5416 5414 5412 5410 5408 5406 5404 5402 5400 5398 5395 5393 5391 5390
5460 5458 5457 5455 5453 5451 5448 5446 5444 5441 5439 5437 5435 5433 5431 5429 5428 5426 5424 5422 5421 5420 5419 5418 5416 5415 5413 5412 5410 5408 5406 5404 5402 5400 5398 5395 5393 5391 5389 5387 5384 5381 5379 5376
5453 5451 5450 5448 5446 5443 5441 5438 5436 5433 5431 5429 5426 5424 5422 5420 5418 5416 5415 5413 5412 5411 5409 5408 5407 5405 5404 5402 5400 5398 5396 5394 5392 5390 5387 5385 5382 5380 5378 5375 5373 5370 5367 5364
5446 5444 5442 5440 5438 5436 5433 5431 5428 5426 5423 5421 5418 5416 5414 5412 5409 5408 5406 5404 5403 5402 5400 5399 5398 5396 5394 5393 5391 5389 5386 5384 5382 5379 5377 5374 5372 5369 5367 5364 5361 5359 5356 5353
5440 5437 5435 5432 5430 5428 5426 5423 5421 5418 5416 5413 5411 5408 5406 5403 5401 5399 5397 5396 5395 5393 5392 5390 5389 5387 5385 5383 5381 5379 5376 5374 5372 5369 5367 5364 5362 5359 5356 5353 5351 5348 5345 5341
5433 5430 5428 5425 5423 5420 5418 5415 5413 5410 5408 5406 5403 5400 5398 5396 5393 5391 5389 5388 5386 5385 5383 5381 5380 5378 5376 5374 5372 5369 5367 5364 5362 5359 5356 5354 5351 5348 5345 5342 5339 5336 5333 5330
5425 5422 5420 5417 5415 5412 5410 5407 5405 5402 5400 5398 5395 5393 5390 5388 5386 5384 5382 5380 5379 5377 5375 5373 5371 5369 5367 5365 5362 5360 5357 5354 5352 5349 5346 5343 5340 5337 5334 5331 5328 5325 5322 5318
5417 5414 5412 5409 5407 5404 5402 5399 5397 5394 5392 5390 5387 5385 5382 5380 5378 5376 5374 5373 5371 5370 5368 5365 5363 5361 5358 5356 5353 5351 5348 5345 5342 5339 5336 5333 5330 5327 5324 5320 5317 5314 5311 5308
5409 5407 5404 5401 5398 5396 5394 5391 5389 5387 5384 5382 5380 5377 5375 5373 5371 5369 5367 5365 5363 5362 5360 5357 5355 5353 5350 5347 5345 5342 5339 5336 5333 5330 5327 5324 5320 5317 5314 5311 5307 5304 5301 5298
5402 5399 5396 5393 5391 5388 5385 5383 5381 5379 5377 5374 5372 5370 5368 5366 5364 5361 5359 5358 5356 5354 5352 5349 5347 5345 5342 5339 5336 5333 5331 5327 5324 5321 5318 5314 5311 5308 5305 5301 5298 5295 5292 5289
5394 5391 5388 5385 5383 5380 5377 5375 5373 5371 5369 5367 5365 5362 5360 5358 5356 5354 5352 5350 5348 5346 5344 5342 5339 5337 5334 5332 5329 5325 5322 5319 5316 5312 5309 5306 5302 5299 5296 5293 5289 5286 5283 5280
5386 5383 5380 5377 5375 5372 5370 5367 5365 5363 5361 5359 5357 5355 5353 5351 5348 5347 5345 5343 5340 5338 5336 5334 5332 5329 5327 5324 5321 5318 5314 5311 5307 5304 5300 5297 5294 5290 5287 5284 5281 5278 5275 5272
5378 5375 5372 5369 5367 5364 5362 5359 5357 5355 5353 5350 5348 5346 5344 5343 5341 5338 5336 5334 5333 5331 5329 5326 5324 5321 5319 5316 5313 5309 5306 5302 5299 5295 5292 5289 5285 5282 5279 5276 5273 5270 5267 5264
5370 5367 5364 5361 5359 5356 5353 5351 5349 5346 5344 5342 5340 5338 5336 5334 5333 5331 5329 5327 5324 5322 5320 5318 5315 5313 5310 5307 5304 5301 5297 5294 5291 5287 5284 5280 5277 5274 5271 5268 5265 5262 5259 5257
5362 5359 5356 5353 5350 5348 5345 5343 5340 5338 5336 5334 5332 5330 5328 5326 5324 5322 5321 5318 5316 5314 5312 5309 5307 5304 5302 5299 5296 5292 5289 5286 5282 5279 5275 5272 5269 5266 5263 5260 5257 5255 5252 5249
5353 5350 5347 5345 5342 5339 5337 5334 5332 5330 5327 5325 5324 5322 5320 5318 5316 5314 5312 5310 5308 5306 5303 5301 5298 5296 5293 5290 5287 5284 5281 5277 5274 5271 5268 5265 5262 5259 5256 5253 5250 5248 5245 5243